C/2016 A6 ( PanSTARRS )

Japanese version
Home page
Updated on May 7, 2016

---------------------------------------------------------------------

* Profile

Discovery Date January 13, 2016
Magnitude 21.0 mag
Discoverer Pan-STARRS 1 telescope (Haleakala)

* Pictures

* Orbital Elements

Epoch 2015 Oct. 25.0 TT = JDT 2457320.5
T 2015 Nov. 5.80165 TT                                  MPCW
q   2.4122002            (2000.0)            P               Q
z  +0.0047644      Peri.  141.08096     -0.67086118     +0.02880124
 +/-0.0006060      Node   300.25567     +0.25299048     +0.94818844
e   0.9885074      Incl.  120.92074     +0.69709475     -0.31640034
From 33 observations 2016 Jan. 13-Feb. 10, mean residual 0".4.

* Magnitudes Graph

        m1 = 15.0 + 5 log d + 10.0 log r

---------------------------------------------------------------------

The orbital elements are published on M.P.E.C. 2016-F43.
The magnitudes graphs are made with Comet for Windows.

---------------------------------------------------------------------

Copyright(C) Seiichi Yoshida (comet@aerith.net). All rights reserved.